Toccoa Rg Letourneau Field, T, GA

9:29 PM EDT on April 26, 2018 (GMT -0400)
Toccoa-Letourneau

Weather History for KTOC - January, 2014

Change the Weather History Date:

Thursday, January 16, 2014

  Actual Average Record
Temperature  
Mean Temperature 38 °F -  
Max Temperature 49 °F 51 °F 62 °F (2017)
Min Temperature 28 °F 29 °F 26 °F (2018)
Degree Days  
Heating Degree Days 26    
Moisture  
Dew Point 16 °F    
Average Humidity 45    
Maximum Humidity 77    
Minimum Humidity 22    
Precipitation  
Precipitation 0.00 in - - ()
Sea Level Pressure  
Sea Level Pressure 29.99 in    
Wind  
Wind Speed 4 mph (West)    
Max Wind Speed 13 mph    
Max Gust Speed 16 mph    
Visibility 10 miles    
Events      
Averages and records for this station are not official NWS values.
T = Trace of Precipitation, MM = Missing Value Source: NWS Daily Summary

Daily Weather History Graph

Daily Weather History Graph

Search for Another Location

Airport or City:

Astronomy

Jan. 16, 2014 Rise Set
Actual Time 7:39 AM EST 5:46 PM EST
Civil Twilight 7:12 AM EST 6:14 PM EST
Nautical Twilight 6:41 AM EST 6:45 PM EST
Astronomical Twilight 6:11 AM EST 7:15 PM EST
Moon 6:33 PM EST (1/16) 7:35 AM EST (1/16)
Length of Visible Light 11h 01m
Length of Day
10h 07m
Full, 100% of the Moon is Illuminated
Jan 16
Full
Jan 24
Last Quarter
Jan 30
New
Feb 6
First Quarter
Feb 14
Full

Hourly Weather History & Observations

Time (EST) Temp. Windchill Dew Point Humidity Pressure Visibility Wind Dir Wind Speed Gust Speed Precip Events Conditions
12:15 AM 34.9 °F 30.8 °F 22.1 °F 60% 29.97 in 10.0 mi NW 4.6 mph - N/A   Clear
12:35 AM 34.2 °F 30.0 °F 21.9 °F 61% 29.97 in 10.0 mi WNW 4.6 mph - N/A   Clear
12:55 AM 34.2 °F 30.0 °F 21.6 °F 60% 29.97 in 10.0 mi WNW 4.6 mph - N/A   Clear
1:15 AM 33.8 °F 29.6 °F 21.2 °F 60% 29.97 in 10.0 mi WNW 4.6 mph - N/A   Clear
1:35 AM 33.4 °F 29.1 °F 20.7 °F 59% 29.96 in 10.0 mi NW 4.6 mph - N/A   Clear
1:55 AM 33.1 °F 28.7 °F 20.7 °F 60% 29.97 in 10.0 mi WNW 4.6 mph - N/A   Clear
2:15 AM 32.9 °F - 20.3 °F 60% 29.97 in 10.0 mi Calm Calm - N/A   Clear
2:35 AM 32.0 °F - 20.5 °F 63% 29.96 in 10.0 mi Calm Calm - N/A   Clear
2:55 AM 31.6 °F 28.3 °F 20.5 °F 63% 29.97 in 10.0 mi West 3.5 mph - N/A   Clear
3:15 AM 31.6 °F 28.3 °F 20.3 °F 63% 29.98 in 10.0 mi West 3.5 mph - N/A   Clear
3:35 AM 31.3 °F - 20.3 °F 64% 29.98 in 10.0 mi Calm Calm - N/A   Clear
3:55 AM 28.2 °F - 21.7 °F 77% 29.97 in 10.0 mi Calm Calm - N/A   Clear
4:15 AM 28.4 °F - 22.1 °F 77% 29.97 in 10.0 mi Calm Calm - N/A   Clear
4:35 AM 30.4 °F 26.9 °F 20.1 °F 66% 29.98 in 10.0 mi WNW 3.5 mph - N/A   Clear
4:55 AM 30.2 °F 25.4 °F 20.1 °F 66% 29.99 in 10.0 mi WNW 4.6 mph - N/A   Clear
5:15 AM 30.0 °F 26.5 °F 19.9 °F 66% 29.99 in 10.0 mi West 3.5 mph - N/A   Clear
5:35 AM 29.3 °F - 19.9 °F 68% 29.99 in 10.0 mi Calm Calm - N/A   Clear
5:55 AM 29.1 °F - 19.6 °F 68% 30.00 in 10.0 mi Calm Calm - N/A   Clear
6:15 AM 28.9 °F 23.9 °F 19.4 °F 68% 29.99 in 10.0 mi WNW 4.6 mph - N/A   Clear
6:35 AM 28.9 °F 23.9 °F 19.2 °F 67% 30.01 in 10.0 mi West 4.6 mph - N/A   Clear
6:55 AM 28.9 °F - 19.2 °F 67% 30.01 in 10.0 mi Calm Calm - N/A   Clear
7:15 AM 28.4 °F - 19.0 °F 68% 30.01 in 10.0 mi Calm Calm - N/A   Clear
7:35 AM 28.0 °F - 18.9 °F 68% 30.01 in 10.0 mi Calm Calm - N/A   Clear
7:55 AM 28.2 °F 24.4 °F 18.9 °F 68% 30.02 in 10.0 mi NW 3.5 mph - N/A   Clear
8:15 AM 29.5 °F - 19.0 °F 65% 30.02 in 10.0 mi Calm Calm - N/A   Clear
8:35 AM 30.9 °F 27.5 °F 19.4 °F 62% 30.04 in 10.0 mi NW 3.5 mph - N/A   Clear
8:55 AM 32.2 °F - 19.4 °F 59% 30.04 in 10.0 mi Calm Calm - N/A   Clear
9:15 AM 33.1 °F 30.0 °F 19.0 °F 56% 30.04 in 10.0 mi NW 3.5 mph - N/A   Clear
9:35 AM 34.0 °F - 19.0 °F 54% 30.05 in 10.0 mi Calm Calm - N/A   Clear
9:55 AM 35.6 °F - 18.1 °F 49% 30.06 in 10.0 mi Calm Calm - N/A   Clear
10:15 AM 37.4 °F - 18.7 °F 47% 30.06 in 10.0 mi Calm Calm - N/A   Clear
10:35 AM 38.3 °F - 18.0 °F 44% 30.05 in 10.0 mi Calm Calm - N/A   Clear
10:55 AM 39.7 °F - 17.4 °F 41% 30.05 in 10.0 mi Calm Calm - N/A   Clear
11:15 AM 40.8 °F 36.2 °F 17.6 °F 39% 30.04 in 10.0 mi SW 6.9 mph - N/A   Clear
11:35 AM 41.4 °F 36.8 °F 17.1 °F 38% 30.04 in 10.0 mi SW 6.9 mph - N/A   Clear
11:55 AM 42.8 °F 39.3 °F 14.5 °F 32% 30.02 in 10.0 mi SW 5.8 mph - N/A   Clear
12:15 PM 43.9 °F 41.3 °F 12.9 °F 29% 30.00 in 10.0 mi West 4.6 mph - N/A   Clear
12:35 PM 44.4 °F 40.5 °F 13.1 °F 28% 29.99 in 10.0 mi SW 6.9 mph - N/A   Clear
12:55 PM 43.9 °F 41.3 °F 12.4 °F 28% 29.97 in 10.0 mi SSE 4.6 mph - N/A   Clear
1:15 PM 45.9 °F 42.9 °F 13.3 °F 27% 29.96 in 10.0 mi SSW 5.8 mph - N/A   Clear
1:35 PM 46.0 °F 42.5 °F 12.2 °F 26% 29.94 in 10.0 mi WSW 6.9 mph - N/A   Clear
1:55 PM 47.1 °F - 10.9 °F 23% 29.94 in 10.0 mi SW 4.6 mph - N/A   Clear
2:15 PM 47.7 °F - 12.2 °F 24% 29.94 in 10.0 mi SW 5.8 mph - N/A   Clear
2:35 PM 48.7 °F - 13.3 °F 24% 29.93 in 10.0 mi WSW 10.4 mph - N/A   Clear
2:55 PM 49.1 °F - 12.0 °F 23% 29.93 in 10.0 mi SSW 6.9 mph - N/A   Clear
3:35 PM 48.7 °F - 10.8 °F 22% 29.94 in 10.0 mi SW 6.9 mph - N/A   Clear
3:55 PM 49.1 °F - 12.9 °F 23% 29.94 in 10.0 mi SW 11.5 mph - N/A   Clear
4:15 PM 48.0 °F - 14.2 °F 26% 29.95 in 10.0 mi WSW 10.4 mph 16.1 mph N/A   Clear
4:35 PM 47.7 °F - 14.2 °F 26% 29.96 in 10.0 mi SW 12.7 mph - N/A   Clear
4:55 PM 46.4 °F 41.9 °F 12.0 °F 25% 29.96 in 10.0 mi SW 9.2 mph - N/A   Clear
5:15 PM 45.7 °F 41.5 °F 12.2 °F 26% 29.96 in 10.0 mi SW 8.1 mph - N/A   Clear
5:35 PM 44.2 °F 39.2 °F 10.9 °F 26% 29.96 in 10.0 mi SW 9.2 mph - N/A   Clear
5:55 PM 43.3 °F 39.2 °F 9.7 °F 25% 29.96 in 10.0 mi SW 6.9 mph - N/A   Clear
6:15 PM 42.3 °F 37.3 °F 10.6 °F 27% 29.96 in 10.0 mi SW 8.1 mph - N/A   Clear
6:35 PM 41.0 °F 37.1 °F 12.0 °F 31% 29.97 in 10.0 mi SW 5.8 mph - N/A   Clear
6:55 PM 41.0 °F 35.8 °F 11.7 °F 30% 29.97 in 10.0 mi SW 8.1 mph - N/A   Clear
7:15 PM 39.9 °F 35.1 °F 11.8 °F 32% 29.97 in 10.0 mi SW 6.9 mph - N/A   Clear
7:35 PM 39.0 °F 33.4 °F 11.7 °F 33% 29.97 in 10.0 mi SW 8.1 mph - N/A   Clear
7:55 PM 38.3 °F 34.8 °F 12.0 °F 34% 29.98 in 10.0 mi SW 4.6 mph - N/A   Clear
8:15 PM 38.7 °F 36.3 °F 9.7 °F 30% 29.99 in 10.0 mi WSW 3.5 mph - N/A   Clear
8:35 PM 39.6 °F 37.4 °F 8.6 °F 28% 30.00 in 10.0 mi West 3.5 mph - N/A   Clear
8:55 PM 38.5 °F 35.0 °F 9.5 °F 30% 30.01 in 10.0 mi WNW 4.6 mph - N/A   Clear
9:15 PM 37.9 °F 35.5 °F 11.3 °F 33% 30.02 in 10.0 mi WNW 3.5 mph - N/A   Scattered Clouds
9:35 PM 38.3 °F 34.8 °F 10.6 °F 32% 30.02 in 10.0 mi West 4.6 mph - N/A   Mostly Cloudy
9:55 PM 37.4 °F 33.8 °F 11.5 °F 34% 30.03 in 10.0 mi WNW 4.6 mph - N/A   Scattered Clouds
10:15 PM 37.2 °F 34.7 °F 11.3 °F 34% 30.03 in 10.0 mi NW 3.5 mph - N/A   Clear
10:35 PM 37.6 °F 35.1 °F 11.8 °F 35% 30.03 in 10.0 mi NW 3.5 mph - N/A   Clear
10:55 PM 35.4 °F - 14.9 °F 43% 30.02 in 10.0 mi Calm Calm - N/A   Clear
11:15 PM 35.4 °F - 15.6 °F 44% 30.02 in 10.0 mi Calm Calm - N/A   Clear
11:35 PM 35.1 °F - 15.8 °F 45% 30.02 in 10.0 mi Calm Calm - N/A   Clear
11:55 PM 34.5 °F - 15.1 °F 45% 30.01 in 10.0 mi Calm Calm - N/A   Clear